Location: Newark
(30.1000°N, 109.4667°E)
Time: 14:32:46
(UTC+00:00)

SR - Pass Details

Date: 26 February 2020
Orbit: 578 x 878 km, 66.7° (Epoch: 08 April)

Event Time Altitude Azimuth Distance (km) Brightness Sun altitude
Rises 06:07:46 0° 193° (SSW) 3,396 ? 47.3°
Reaches altitude 10° 06:10:14 10° 190° (S) 2,487 ? 47.0°
Maximum altitude 06:15:56 60° 111° (ESE) 991 ? 46.4°
Drops below altitude 10° 06:21:44 10° 33° (NNE) 2,519 ? 45.8°
Sets 06:24:14 0° 30° (NNE) 3,444 ? 45.5°
